Regional Weather Roundup
Issued by NWS

Home | Current Version | Previous Version | Graphics & Text | Print | Product List | Glossary On
Versions: 1 2 3 4 5 6 7 8 9 10 11 12 13 14 15 16 17 18 19 20 21 22 23 24 25 26 27 28 29 30 31 32 33 34 35 36 37 38 39 40 41 42 43 44 45 46 47 48 49
000
ASUS45 KBOU 292007
RWRCO

WEATHER ROUNDUP FOR COLORADO
NATIONAL WEATHER SERVICE DENVER/BOULDER CO
100 PM MST THU JAN 29 2015

NOTE: "FAIR" INDICATES FEW OR NO CLOUDS BELOW 12000 FEET WITH NO
SIGNIFICANT WEATHER AND/OR OBSTRUCTIONS TO VISIBILITY.

COZ001>005-013-030-031-292100-
...NORTHWEST COLORADO...

CITY           SKY/WX    TMP DP  RH WIND       PRES   REMARKS
CRAIG          MOSUNNY   39  30  70 SW3       30.36F
HAYDEN         MOSUNNY   37  27  65 SW5       30.35F
MEEKER         PTSUNNY   37  27  67 CALM      30.35F
MOUNT WERNER   NOT AVBL
STEAMBOAT SPGS MOSUNNY   38  28  64 CALM      30.35F
WALDEN         SUNNY     36  25  64 W3        30.37F
$$

COZ006>008-011-292100-
...WEST CENTRAL VALLEYS...

CITY           SKY/WX    TMP DP  RH WIND       PRES   REMARKS
GRAND JUNCTION PTSUNNY   51  28  41 SE10      30.30F
MONTROSE       CLOUDY    47  29  49 CALM      30.34F
EAGLE          SUNNY     46  27  46 SW6       30.35F
RIFLE          MOSUNNY   48  27  44 SE3       30.31F
DELTA          CLOUDY    49  28  45 CALM      30.33F
NUCLA          CLOUDY    45  30  57 CALM      30.37F
$$

COZ017>023-064>068-292100-
...SOUTHWEST COLORADO...

CITY           SKY/WX    TMP DP  RH WIND       PRES   REMARKS
DURANGO        CLOUDY    45  31  58 E6        30.37F
CORTEZ         PTSUNNY   53  29  39 VRB6      30.32F
PAGOSA SPRINGS CLOUDY    45  25  45 S5        30.40F
TELLURIDE      CLOUDY    43  16  33 S3        30.37F
WOLF CREEK PAS NOT AVBL
$$

COZ009-010-012-014-032>034-037-058>063-292100-
...CENTRAL COLORADO...

CITY           SKY/WX    TMP DP  RH WIND       PRES   REMARKS
ASPEN          MOSUNNY   42  21  43 N8        30.33F
BUENA VISTA    CLOUDY    33  25  73 SE3       30.46F
COPPER MTN     SUNNY     32  14  47 SE9G18    30.42F WCI  24
BERTHOUD PASS  FAIR      18  12  79 SE17      30.44F WCI   2
COTTONWOOD PAS CLOUDY    30  27  86 SE6       30.45F WCI  24
GUNNISON       PTSUNNY   25  18  74 CALM      30.42F
KREMMLING      SUNNY     37  27  65 CALM      30.38F
LEADVILLE      MOSUNNY   27  20  75 S18       30.40F WCI  14
MONARCH PASS   CLOUDY    21  18  86 E10       30.54F WCI  10
SALIDA         CLOUDY    37  25  63 E9        30.53F
SUNLIGHT       MOSUNNY   34  21  60 CALM      30.40
WILKERSON PASS CLOUDY    23  21  93 SW5       30.47F WCI  17
$$

COZ069>075-292100-
...SAN LUIS VALLEY/SANGRE DE CRISTO MOUNTAINS...

CITY           SKY/WX    TMP DP  RH WIND       PRES   REMARKS
ALAMOSA        CLOUDY    44  21  40 VRB5      30.39F
LA VETA PASS   NOT AVBL
SAGUACHE       PTSUNNY   37  28  70 SE5       30.41F
$$

COZ035-036-038>040-292100-
...NORTHERN COLORADO FRONT RANGE...

CITY           SKY/WX    TMP DP  RH WIND       PRES   REMARKS
DENVER INTL AP PTSUNNY   45  23  42 VRB6      30.44F
DMNS CITY PARK   N/A     45  23  42 SE7       30.44F
AURORA         PTSUNNY   43  23  44 S9        30.45F
FRONT RANGE AP NOT AVBL
ERIE MUNI ARPT MOSUNNY   47  22  37 S5        30.44F
BOULDER MUN AP MOSUNNY   45  27  49 SE8       30.43F
CENTENNIAL     CLOUDY    42  26  53 S9        30.44F
BROOMFIELD     PTSUNNY   43  25  49 MISG      30.45F
FORT COLLINS   MOSUNNY   46  25  42 S12       30.45F
LONGMONT       MOSUNNY   49  25  40 SE6       30.46F
$$

COZ041-046-047-076>085-087-088-292100-
...PIKES PEAK/PALMER DIVIDE AND SOUTHERN FOOTHILLS...

CITY           SKY/WX    TMP DP  RH WIND       PRES   REMARKS
COLO. SPRINGS  PTSUNNY   42  24  49 SE13G18   30.47F
A. F. ACADEMY  PTSUNNY   39  23  53 S9        30.45F
ELLICOTT       CLOUDY   N/A N/A N/A CALM      30.47F
FALCON         CLOUDY    38  25  58 S6        30.48F
FORT CARSON    MOSUNNY   45  23  40 SE8G17    30.45F
LIMON          CLOUDY    44  16  32 N8        30.46F
MONUMENT HILL  CLOUDY    36  27  69 S13       30.44F
TRINIDAD       CLOUDY    41  23  48 CALM      30.48F
$$

COZ042>045-048>051-090-091-292100-
...NORTHEAST COLORADO...

CITY           SKY/WX    TMP DP  RH WIND       PRES   REMARKS
GREELEY ARPT   SUNNY     48  23  37 SW9       30.43F
AKRON          MOSUNNY   47  18  31 N13       30.45F
BURLINGTON     SUNNY     48  15  26 N15       30.45F
WRAY           SUNNY     49  16  26 NW14      30.46F
STERLING       MOSUNNY   50  21  32 N10       30.45F
HOLYOKE        SUNNY     48  14  25 N7        30.47F
FORT MORGAN    PTSUNNY   47  17  30 CALM      30.46F
$$

COZ086-089-092>099-292100-
...SOUTHEAST COLORADO...

CITY           SKY/WX    TMP DP  RH WIND       PRES   REMARKS
PUEBLO         CLOUDY    48  19  31 S9        30.47F
LA JUNTA       MOSUNNY   52  22  30 NE6       30.48F
LAMAR          CLOUDY    53  20  27 N10       30.46F
SPRINGFIELD      N/A     51  21  30 N15G21    30.46F
$$



USA.gov is the U.S. government's official web portal to all federal, state and local government web resources and services.